User: anonymous   Login
Location: Columbia
(38.9520°N, 92.3340°W)
Time: 02:00:51
(UTC-05:00)
Language:

Meteor 1-4 Rocket - Orbit

View from above orbital plane
View from above orbital plane
View from above satellite
View from above satellite

Ground track
Ground track

The orbit data is extracted from the following two-line orbital elements,

1 04394U 70037B   14296.17263602  .00012283  00000-0  52887-3 0  7117
2 04394 081.2462 067.4298 0047332 177.5800 182.5670 15.21446497417169
Epoch (UTC): 23 October 2014 04:08:35
Eccentricity: 0.0047332
inclination: 81.2462°
perigee height: 469 km
apogee height: 534 km
right ascension of ascending node: 67.4298°
argument of perigee: 177.5800°
revolutions per day: 15.21446497
mean anomaly at epoch: 182.5670°
orbit number at epoch: 41716

The dashed part of the orbit path shows where the satellite is in the earth's shadow,  

DLR